EW5923 Weather Reports


Display with metric or nautical units.
time (UTC)temp
F
wind
direction
speed
MPH
gust
MPH
rain 1hr
in
rain 24hr
in
rain mn
in
humidity
%
barometer
mb
20260903062123 88 322 1.0 3.0 0.00 0.00 0.00 43 1013.4
20260903061122 88 315 1.0 2.0 0.00 0.00 0.00 43 1013.3
20260903060124 89 316 0.0 1.0 0.00 0.00 0.00 41 1013.2
20260903055123 90 316 1.0 2.0 0.00 0.00 0.00 40 1013.2
20260903054122 90 318 2.0 3.0 0.00 0.00 0.00 39 1013.2
20260903053123 90 317 2.0 4.0 0.00 0.00 0.00 38 1013.3
20260903052144 90 323 2.0 3.0 0.00 0.00 0.00 38 1013.3
20260903051122 90 323 1.0 3.0 0.00 0.00 0.00 38 1013.4
20260903050122 90 347 2.0 3.0 0.00 0.00 0.00 38 1013.4
20260903045122 91 319 1.0 2.0 0.00 0.00 0.00 39 1013.4
20260903044122 91 330 2.0 3.0 0.00 0.00 0.00 37 1013.3
20260903043122 91 348 2.0 3.0 0.00 0.00 0.00 37 1013.2
20260903042123 92 314 2.0 3.0 0.00 0.00 0.00 36 1013.3
20260903041145 92 314 2.0 3.0 0.00 0.00 0.00 36 1013.3
20260903040123 92 317 2.0 3.0 0.00 0.00 0.00 35 1013.2
20260903035123 92 316 1.0 3.0 0.00 0.00 0.00 35 1013.1
20260903034123 93 317 2.0 4.0 0.00 0.00 0.00 35 1013.0
20260903033124 93 336 3.0 4.0 0.00 0.00 0.00 35 1012.9
20260903032122 93 318 2.0 4.0 0.00 0.00 0.00 35 1012.8
20260903031122 94 328 4.0 8.0 0.00 0.00 0.00 34 1012.7
20260903030122 94 320 3.0 6.0 0.00 0.00 0.00 34 1012.6
20260903025122 94 322 3.0 5.0 0.00 0.00 0.00 34 1012.5
20260903024122 95 323 4.0 5.0 0.00 0.00 0.00 33 1012.4
20260903023123 95 342 5.0 8.0 0.00 0.00 0.00 33 1012.4
20260903022122 95 344 4.0 8.0 0.00 0.00 0.00 33 1012.3
20260903021122 96 342 4.0 6.0 0.00 0.00 0.00 32 1012.3
20260903020123 96 337 5.0 9.0 0.00 0.00 0.00 32 1012.0
20260903015122 96 346 6.0 9.0 0.00 0.00 0.00 31 1012.1
20260903014122 97 343 5.0 9.0 0.00 0.00 0.00 30 1011.9
20260903013143 97 346 6.0 9.0 0.00 0.00 0.00 30 1011.8
20260903012145 97 328 4.0 7.0 0.00 0.00 0.00 30 1011.9
20260903011143 98 325 7.0 9.0 0.00 0.00 0.00 29 1011.9
20260903010123 98 284 3.0 8.0 0.00 0.00 0.00 28 1011.9
20260903005122 98 356 5.0 9.0 0.00 0.00 0.00 28 1012.0
20260903004122 98 348 9.0 13.0 0.00 0.00 0.00 28 1012.0
20260903003124 98 324 5.0 11.0 0.00 0.00 0.00 28 1012.0
20260903002122 98 322 4.0 7.0 0.00 0.00 0.00 27 1012.1
20260903001123 98 351 4.0 11.0 0.00 0.00 0.00 28 1012.1
20260903000143 99 325 7.0 13.0 0.00 0.00 0.00 27 1011.9
20260902235123 100 324 6.0 12.0 0.00 0.00 0.00 27 1012.2
20260902234122 99 357 6.0 12.0 0.00 0.00 0.00 27 1012.3
20260902233143 99 1 3.0 9.0 0.00 0.00 0.00 28 1012.5
20260902232122 100 340 10.0 15.0 0.00 0.00 0.00 27 1012.5
20260902231123 99 327 5.0 12.0 0.00 0.00 0.00 28 1012.6
20260902230122 99 346 10.0 15.0 0.00 0.00 0.00 28 1012.7
20260902225124 99 304 5.0 9.0 0.00 0.00 0.00 28 1012.9
20260902224122 99 320 8.0 13.0 0.00 0.00 0.00 28 1013.1
20260902223123 99 305 6.0 11.0 0.00 0.00 0.00 28 1013.2
20260902222123 99 327 8.0 14.0 0.00 0.00 0.00 28 1013.4
20260902221123 100 312 7.0 11.0 0.00 0.00 0.00 29 1013.4
20260902220122 98 237 2.0 5.0 0.00 0.00 0.00 31 1013.6
20260902215143 99 308 9.0 15.0 0.00 0.00 0.00 30 1013.6
20260902214122 98 329 6.0 17.0 0.00 0.00 0.00 30 1013.7
20260902213122 98 329 8.0 15.0 0.00 0.00 0.00 31 1013.9
20260902212143 98 344 12.0 16.0 0.00 0.00 0.00 31 1014.0
20260902211143 99 317 10.0 14.0 0.00 0.00 0.00 31 1014.1
20260902210122 96 255 5.0 12.0 0.00 0.00 0.00 34 1014.1
20260902205143 98 291 8.0 12.0 0.00 0.00 0.00 32 1014.3
20260902204122 98 319 7.0 13.0 0.00 0.00 0.00 33 1014.5
20260902203122 98 326 8.0 12.0 0.00 0.00 0.00 33 1014.6
20260902202122 97 300 8.0 14.0 0.00 0.00 0.00 34 1014.8
20260902201122 96 321 7.0 14.0 0.00 0.00 0.00 37 1015.0
20260902200122 96 314 7.0 13.0 0.00 0.00 0.00 37 1015.2
20260902195122 96 348 8.0 15.0 0.00 0.00 0.00 39 1015.3
20260902194123 97 37 10.0 13.0 0.00 0.00 0.00 38 1015.4
20260902193123 96 309 4.0 12.0 0.00 0.00 0.00 39 1015.5
20260902192122 95 306 6.0 11.0 0.00 0.00 0.00 39 1015.7
20260902191122 95 321 5.0 14.0 0.00 0.00 0.00 41 1015.7
20260902190123 94 301 6.0 10.0 0.00 0.00 0.00 40 1016.1
20260902185122 94 187 5.0 13.0 0.00 0.00 0.00 42 1016.1
20260902184124 95 4 7.0 12.0 0.00 0.00 0.00 42 1016.2
20260902183124 94 9 9.0 12.0 0.00 0.00 0.00 42 1016.5
20260902182122 94 281 5.0 9.0 0.00 0.00 0.00 42 1016.5
20260902181122 94 332 4.0 11.0 0.00 0.00 0.00 44 1016.7
20260902180122 92 80 3.0 7.0 0.00 0.00 0.00 44 1016.8
20260902175143 92 312 8.0 12.0 0.00 0.00 0.00 43 1016.9
20260902174143 93 264 6.0 11.0 0.00 0.00 0.00 44 1017.0
20260902173122 92 276 5.0 11.0 0.00 0.00 0.00 46 1017.0
20260902172122 92 214 5.0 10.0 0.00 0.00 0.00 46 1017.0
20260902171122 91 231 3.0 6.0 0.00 0.00 0.00 47 1017.0
20260902170123 91 286 4.0 9.0 0.00 0.00 0.00 47 1017.0
20260902165144 91 72 5.0 10.0 0.00 0.00 0.00 47 1017.0
20260902164124 90 120 5.0 8.0 0.00 0.00 0.00 50 1016.9
20260902163122 90 227 5.0 9.0 0.00 0.00 0.00 51 1016.9
20260902162122 89 115 4.0 9.0 0.00 0.00 0.00 52 1017.0
20260902161122 89 89 5.0 9.0 0.00 0.00 0.00 53 1017.0
20260902160122 89 107 5.0 9.0 0.00 0.00 0.00 53 1017.0
20260902155122 88 129 6.0 9.0 0.00 0.00 0.00 54 1016.9
20260902154122 88 87 5.0 9.0 0.00 0.00 0.00 54 1017.0
20260902153123 87 70 6.0 9.0 0.00 0.00 0.00 55 1016.9
20260902152143 87 84 7.0 10.0 0.00 0.00 0.00 55 1017.0
20260902151144 86 69 7.0 11.0 0.00 0.00 0.00 57 1016.9
20260902150122 86 52 8.0 13.0 0.00 0.00 0.00 57 1016.9
20260902145123 85 59 7.0 11.0 0.00 0.00 0.00 57 1016.9
20260902144124 85 97 6.0 13.0 0.00 0.00 0.00 57 1016.9
20260902143122 85 65 6.0 12.0 0.00 0.00 0.00 56 1016.7
20260902142123 85 50 4.0 9.0 0.00 0.00 0.00 56 1016.7
20260902141122 84 135 3.0 8.0 0.00 0.00 0.00 57 1016.5
20260902140122 84 125 4.0 8.0 0.00 0.00 0.00 58 1016.4
20260902135123 82 108 4.0 7.0 0.00 0.00 0.00 60 1016.2
20260902134122 82 48 2.0 3.0 0.00 0.00 0.00 61 1016.0
20260902133123 80 47 3.0 4.0 0.00 0.00 0.00 64 1015.9
20260902132122 79 47 2.0 3.0 0.00 0.00 0.00 67 1016.0
20260902131122 78 43 2.0 4.0 0.00 0.00 0.00 69 1015.9
20260902130122 78 16 3.0 4.0 0.00 0.00 0.00 69 1015.8
20260902125123 79 14 2.0 3.0 0.00 0.00 0.00 67 1015.7
20260902124122 79 14 2.0 3.0 0.00 0.00 0.00 67 1015.5
20260902123122 79 14 2.0 3.0 0.00 0.00 0.00 67 1015.3
20260902122143 80 14 2.0 3.0 0.00 0.00 0.00 66 1015.4
20260902121122 80 14 2.0 3.0 0.00 0.00 0.00 66 1015.5
20260902120122 79 14 2.0 3.0 0.00 0.00 0.00 67 1015.3
20260902115122 79 14 2.0 3.0 0.00 0.00 0.00 67 1015.2
20260902114122 79 15 2.0 3.0 0.00 0.00 0.00 67 1015.2
20260902113122 79 15 2.0 3.0 0.00 0.00 0.00 66 1015.2
20260902112122 80 15 2.0 3.0 0.00 0.00 0.00 65 1015.2
20260902111143 80 15 2.0 4.0 0.00 0.00 0.00 64 1015.3
20260902110143 80 5 3.0 4.0 0.00 0.00 0.00 64 1015.2
20260902105122 80 13 2.0 3.0 0.00 0.00 0.00 63 1015.2
20260902104122 81 13 2.0 3.0 0.00 0.00 0.00 63 1015.2
20260902103122 81 13 2.0 3.0 0.00 0.00 0.00 62 1015.3
20260902102122 82 13 2.0 3.0 0.00 0.00 0.00 61 1015.3
20260902101122 82 13 2.0 3.0 0.00 0.00 0.00 61 1015.4
20260902100122 82 14 3.0 4.0 0.00 0.00 0.00 61 1015.3
20260902095122 81 16 2.0 3.0 0.00 0.00 0.00 64 1015.3
20260902094122 81 17 1.0 2.0 0.00 0.00 0.00 64 1015.2
20260902093122 82 18 0.0 1.0 0.00 0.00 0.00 63 1015.2
20260902092144 82 16 2.0 3.0 0.00 0.00 0.00 63 1015.1
20260902091122 82 15 0.0 2.0 0.00 0.00 0.00 62 1015.1
20260902090143 82 15 2.0 3.0 0.00 0.00 0.00 62 1015.3
20260902085123 82 15 1.0 2.0 0.00 0.00 0.00 62 1015.4
20260902084122 83 15 2.0 3.0 0.00 0.00 0.00 61 1015.4
20260902083122 83 15 2.0 2.0 0.00 0.00 0.00 61 1015.4
20260902082144 83 15 2.0 3.0 0.00 0.00 0.00 60 1015.3
20260902081122 84 13 1.0 2.0 0.00 0.00 0.00 58 1015.3
20260902080122 84 13 2.0 3.0 0.00 0.00 0.00 59 1015.4
20260902075122 84 11 1.0 2.0 0.00 0.00 0.00 59 1015.2
20260902074123 84 11 0.0 0.0 0.00 0.00 0.00 58 1015.2
20260902073122 85 11 0.0 1.0 0.00 0.00 0.00 56 1015.0
20260902072122 85 13 0.0 2.0 0.00 0.00 0.00 55 1015.0
20260902071122 85 12 0.0 2.0 0.00 0.00 0.00 55 1014.9
20260902070143 85 5 3.0 5.0 0.00 0.00 0.00 55 1014.8
20260902065122 84 221 3.0 4.0 0.00 0.00 0.00 57 1014.9
20260902064122 84 219 2.0 3.0 0.00 0.00 0.00 57 1014.9
20260902063122 84 220 2.0 3.0 0.00 0.00 0.00 58 1015.0